Content
SEND FEEDBACK

Daily
Averages
Monthly
Summary
French Polynesia

FAAA, FRENCH POLYNESIA


Home > Oceania > French Polynesia
Elevation: 7 feet     Latitude: 17 33S     Longitude: 149 37W

WEATHER
 
SELECT A DAY
Number of Records: 208,245;   Date Range: 6/30/96 - 7/28/14
 
SHARE

PRINT THIS DATA

[ ← Previous Day ]
WEATHER ALMANAC - JULY 18, 2013
[ Next Day → ]
[ °C ]   °F
Weather ElementAverageHighLow
Temperature74.6 °F80.6 °F (12:00 pm)68 °F (4:00 am)
Dewpoint64.7 °F68 °F (9:00 am)59 °F (4:30 am)
Humidity70.1 %83 % (11:00 pm)55 % (2:00 pm)
Barometer29.92 in29.99 in (8:00 pm)29.83 in (3:00 am)
Wind Speed13.3 mph38 mph (11:00 am)
Wind Gust33.4 mph (4:00 pm)
Weather ElementAverage
Visibility8 mi
Wind DirectionSSE (168.1 °)

Weather ElementTotal
Precipitation---
Cooling Degree Days9.3 (Base 65)
Growing Degree Days24.3 (Base 50)
Averaged from 53 records on July 18, 2013
WEATHER CONDITIONS BREAKOUT
WIND DIRECTION BREAKOUT
WEATHER BY HOUR - JULY 18, 2013
[ °C ]   °F
Local TimeTemperatureDewpointHumidityBarometerVisibilityWind DirectionWind SpeedGust SpeedPrecipitationEventsConditions
1:00 AM73.4 °F64.4 °F73 %29.86 in6.2 miSouth (190°)6.9 mphPartly Cloudy
2:00 AM71.0 °F62.0 °F65 %29.87 in12.0 miSouth (180°)13.4 mphScattered Clouds
2:00 AM71.6 °F60.8 °F69 %29.86 in6.2 miSouth (180°)6.9 mphPartly Cloudy
2:30 AM71.6 °F60.8 °F69 %29.86 in6.2 miVariable3.5 mphPartly Cloudy
3:00 AM69.8 °F60.8 °F73 %29.83 in6.2 miVariable1.2 mphPartly Cloudy
3:30 AM69.8 °F60.8 °F73 %29.83 in6.2 miEast (90°)3.5 mph
4:00 AM68.0 °F60.8 °F78 %29.83 in6.2 miVariable3.5 mph
4:30 AM69.8 °F59.0 °F68 %29.86 in6.2 miSouth (170°)3.5 mph
5:00 AM69.0 °F61.0 °F69 %29.87 in37.0 miSouth (170°)11.2 mphClear
5:00 AM69.8 °F60.8 °F73 %29.86 in6.2 miSouth (170°)5.8 mph
5:30 AM69.8 °F60.8 °F73 %29.86 in6.2 miSE (130°)3.5 mph
6:00 AM69.8 °F62.6 °F78 %29.89 in6.2 miSouth (190°)8.1 mphPartly Cloudy
6:30 AM69.8 °F62.6 °F78 %29.89 in6.2 miSouth (180°)6.9 mphMostly Cloudy
7:00 AM69.8 °F62.6 °F78 %29.92 in6.2 miSouth (190°)8.1 mphScattered Clouds
7:30 AM73.4 °F64.4 °F73 %29.92 in6.2 miSouth (180°)10.4 mphPartly Cloudy
8:00 AM75.0 °F64.0 °F62 %29.96 in19.0 miSouth (190°)13.8 mphPartly Cloudy
8:00 AM75.2 °F64.4 °F69 %29.95 in6.2 miSouth (190°)13.8 mphPartly Cloudy
8:30 AM75.2 °F66.2 °F73 %29.95 in6.2 miSouth (190°)16.1 mphPartly Cloudy
9:00 AM77.0 °F68.0 °F74 %29.95 in6.2 miVariable9.2 mphPartly Cloudy
9:30 AM78.8 °F68.0 °F69 %29.98 in6.2 miSSW (200°)10.4 mphPartly Cloudy
10:00 AM78.8 °F68.0 °F69 %29.95 in6.2 miSSW (200°)9.2 mphPartly Cloudy
10:30 AM78.8 °F68.0 °F69 %29.95 in6.2 miSouth (190°)19.6 mphPartly Cloudy
11:00 AM79.0 °F68.0 °F61 %29.95 in19.0 miSouth (190°)38.0 mphScattered Clouds
11:00 AM78.8 °F68.0 °F69 %29.95 in6.2 miSouth (190°)19.6 mphPartly Cloudy
11:30 AM78.8 °F66.2 °F65 %29.92 in6.2 miSouth (190°)18.4 mphPartly Cloudy
12:00 PM80.6 °F68.0 °F65 %29.92 in6.2 miSouth (190°)16.1 mphPartly Cloudy
12:30 PM78.8 °F66.2 °F65 %29.92 in6.2 miSSW (200°)18.4 mphPartly Cloudy
1:00 PM80.6 °F68.0 °F65 %29.89 in6.2 miSSW (200°)17.3 mphPartly Cloudy
1:30 PM80.6 °F68.0 °F65 %29.89 in6.2 miSouth (190°)18.4 mphPartly Cloudy
2:00 PM80.0 °F67.0 °F55 %29.89 in19.0 miSouth (190°)19.6 mphScattered Clouds
2:00 PM80.6 °F66.2 °F61 %29.89 in6.2 miSouth (190°)19.6 mphPartly Cloudy
2:30 PM78.8 °F66.2 °F65 %29.89 in6.2 miSouth (190°)21.9 mphPartly Cloudy
3:00 PM77.0 °F66.2 °F69 %29.89 in6.2 miSouth (190°)24.2 mphMostly Cloudy
3:30 PM77.0 °F66.2 °F69 %29.89 in6.2 miSouth (190°)21.9 mphMostly Cloudy
4:00 PM78.8 °F66.2 °F65 %29.89 in6.2 miSouth (190°)20.7 mph33.4 mphScattered Clouds
4:30 PM77.0 °F64.4 °F65 %29.89 in6.2 miSouth (190°)19.6 mphMostly Cloudy
5:00 PM76.0 °F65.0 °F62 %29.92 in16.0 miSouth (180°)21.9 mphMostly Cloudy
5:00 PM75.2 °F66.2 °F73 %29.92 in6.2 miSouth (180°)21.9 mphMostly Cloudy
5:30 PM73.4 °F64.4 °F73 %29.92 in6.2 miSouth (180°)25.3 mphMostly Cloudy
6:00 PM73.4 °F64.4 °F73 %29.95 in6.2 miSouth (180°)20.7 mphScattered Clouds
6:30 PM73.4 °F64.4 °F73 %29.95 in6.2 miSouth (180°)20.7 mphPartly Cloudy
7:00 PM75.2 °F64.4 °F69 %29.95 in6.2 miSouth (190°)17.3 mphScattered Clouds
7:30 PM75.2 °F64.4 °F69 %29.98 in6.2 miSouth (180°)11.5 mphScattered Clouds
8:00 PM74.0 °F64.0 °F62 %29.99 in12.0 miSouth (180°)22.4 mphPartly Cloudy
8:00 PM73.4 °F64.4 °F73 %29.98 in6.2 miSouth (180°)11.5 mphScattered Clouds
8:30 PM73.4 °F64.4 °F73 %29.98 in6.2 miSouth (180°)11.5 mphPartly Cloudy
9:00 PM73.4 °F64.4 °F73 %29.98 in6.2 miSouth (180°)8.1 mphPartly Cloudy
9:30 PM73.4 °F64.4 °F73 %29.98 in6.2 miSSE (160°)4.6 mphPartly Cloudy
10:00 PM73.4 °F66.2 °F78 %29.98 in6.2 miSouth (190°)4.6 mphPartly Cloudy
10:30 PM73.4 °F64.4 °F73 %29.98 in6.2 miSouth (180°)6.9 mphPartly Cloudy
11:00 PM72.0 °F65.0 °F74 %29.99 in12.0 miSouth (180°)5.8 mphScattered Clouds
11:00 PM71.6 °F66.2 °F83 %29.98 in6.2 miSouth (180°)5.8 mphPartly Cloudy
11:30 PM71.6 °F66.2 °F83 %29.98 in6.2 miSouth (170°)2.3 mphPartly Cloudy
Hourly data recorded from NTAA, located miles away from Faaa, French Polynesia







STORIES FROM OUR PARTNERS